Regional Weather Roundup
Issued by NWS

Home | Current Version | Previous Version | Graphics & Text | Print | Product List | Glossary On
Versions: 1 2 3 4 5 6 7 8 9 10 11 12 13 14 15 16 17 18 19 20 21 22 23 24 25 26 27 28 29 30 31 32 33 34 35 36 37 38 39 40 41 42 43 44 45 46 47 48 49 50
000
ASUS45 KPSR 300500
RWRAZ

PRELIMINARY ARIZONA REGIONAL HOURLY WEATHER ROUNDUP
NATIONAL WEATHER SERVICE PHOENIX AZ
1000 PM MST FRI AUG 29 2014

NOTE: FAIR INDICATES FEW OR NO CLOUDS BELOW 12,000 FEET WITH NO
SIGNIFICANT WEATHER AND/OR OBSTRUCTIONS TO VISIBILITY.

AZZ001>003-036-300600-
NORTHWEST ARIZONA

CITY           SKY/WX    TMP DP  RH WIND       PRES   REMARKS
KINGMAN        PTCLDY    79  33  19 S10       29.96R
$$

AZZ004>008-015-016-018-300600-
NORTH CENTRAL ARIZONA

CITY           SKY/WX    TMP DP  RH WIND       PRES   REMARKS
GRAND CANYON     N/A    N/A N/A N/A MISG        N/A
WILLIAMS       CLEAR     57  45  62 SE9       30.30R
PRESCOTT       PTCLDY    67  46  47 SW5       30.11R
FLAGSTAFF      PTCLDY    53  43  68 CALM      30.28S
PAYSON         CLEAR     75  37  25 NE5       30.13R
PAGE           PTCLDY    79  35  20 SW3       30.02S
$$

AZZ009>014-017-300600-
NORTHEAST ARIZONA

CITY           SKY/WX    TMP DP  RH WIND       PRES   REMARKS
WINSLOW        NOT AVBL
SAINT JOHNS    CLEAR     68  44  42 CALM      30.16R
WINDOW ROCK    CLEAR     57  31  37 SW3       30.24S
$$

AZZ023-300600-
GREATER PHOENIX AREA

CITY           SKY/WX    TMP DP  RH WIND       PRES   REMARKS
PHOENIX        CLEAR     95  45  17 W3        29.74R
DEER VALLEY    CLEAR     91  42  18 NE5       29.77S
SCOTTSDALE     CLEAR     94  46  19 NE3       29.79R
MESA-GATEWAY   CLEAR     91  39  16 CALM      29.80R
$$

AZZ027-028-300600-
SOUTHWEST MARICOPA COUNTY AND PINAL COUNTY

CITY           SKY/WX    TMP DP  RH WIND       PRES   REMARKS
CASA GRANDE    CLEAR     90  37  15 CALM      29.79S
$$

AZZ503-504-507>509-300600-
SOUTHEAST ARIZONA

CITY           SKY/WX    TMP DP  RH WIND       PRES   REMARKS
TUCSON         CLEAR     89  39  17 N3        29.90S
NOGALES        CLEAR     72  53  51 E8        30.00S
SIERRA VISTA   CLEAR     75  46  35 VRB3      30.07S
SAFFORD        CLEAR     81  45  28 N8        29.91S
$$

AZZ020-021-025-026-031-300600-
SOUTHWEST ARIZONA

CITY           SKY/WX    TMP DP  RH WIND       PRES   REMARKS
YUMA           CLEAR     97  46  17 CALM      29.68R
$$

CAZ031-033-041-043-047-048-061-300600-
SOUTHERN CALIFORNIA

CITY           SKY/WX    TMP DP  RH WIND       PRES   REMARKS
DOWNTOWN L.A.  CLEAR     70  62  76 CALM      29.83R
L.A. AIRPORT   CLEAR     69  63  81 SW3       29.84R
SAN DIEGO      PTCLDY    71  64  78 W6        29.85S
BURBANK        CLEAR     75  56  51 SE6       29.83S
ONTARIO        CLEAR     76  57  51 SW5       29.85R
RIVERSIDE      CLEAR     77  56  48 W3        29.85R
PALM SPRINGS   CLEAR    100  40  12 NW12      29.72R
EL CENTRO NAS  CLEAR     93  49  22 SW9       29.67R
IMPERIAL       CLEAR     96  47  18 SW9       29.66R
BLYTHE         CLEAR     92  42  17 NW3       29.69R
$$

NVZ020-UTZ003-300600-
SOUTHERN NEVADA-UTAH

CITY           SKY/WX    TMP DP  RH WIND       PRES   REMARKS
LAS VEGAS      NOT AVBL
SALT LAKE CITY MOCLDY    78  39  24 SE13      29.95S
$$

NMZ009-TXZ055-300600-
NEW MEXICO-WEST TEXAS

CITY           SKY/WX    TMP DP  RH WIND       PRES   REMARKS
ALBUQUERQUE    CLEAR     71  41  33 E7        30.14R
EL PASO        PTCLDY    81  50  33 E7        30.01R
$$


........................KEY........................
SKY/WX - SKY CONDITION/WEATHER
TMP    - TEMPERATURE IN FAHRENHEIT
DP     - DEW POINT IN FAHRENHEIT
RH     - RELATIVE HUMIDITY IN PERCENT
WIND   - DIRECTION AND SPEED IN MILES PER HOUR (MPH)
VRB    - VARIABLE WIND DIRECTION
PRES   - MEAN SEA LEVEL PRESSURE IN INCHES OF MERCURY
         F - FALLING PRESSURE   R - RISING PRESSURE
         S - STEADY PRESSURE
VSB    - VISIBILITY IN MILES
HX     - HEAT INDEX IN FAHRENHEIT
WCI    - WIND CHILL INDEX IN FAHRENHEIT
TC     - TEMPERATURE IN CELSIUS WHICH IS ALSO KNOWN AS
         TEMPERATURE IN CENTIGRADE
AFB    - AIR FORCE BASE
         LUKE AFB IS LUKE AIR FORCE BASE
         DAVIS-MONTHAN IS DAVIS-MONTHAN AIR FORCE BASE
NAS    - NAVAL AIR STATION
         EL CENTRO NAS IS EL CENTRO NAVAL AIR STATION
N/A    - NOT AVAILABLE



USA.gov is the U.S. government's official web portal to all federal, state and local government web resources and services.